Regional Weather Roundup
Issued by NWS Goodland, KS

Home | Current Version | Previous Version | Text Only | Print | Product List | Glossary Off
Versions: 1 2 3 4 5 6 7 8 9 10 11 12 13 14 15 16 17 18 19 20 21 22 23 24 25 26 27 28 29 30 31 32 33 34 35 36 37 38 39 40 41 42 43 44 45 46 47 48 49 50

000
ASUS43 KGLD 231708
RWRGLD

GOODLAND FORECAST AREA HOURLY WEATHER ROUNDUP
NATIONAL WEATHER SERVICE GOODLAND KS
1100 AM MDT THU MAR 23 2017

...OFFICIAL OBSERVATIONS...

CITY           SKY/WX    TMP DP  RH WIND       PRES   REMARKS
GOODLAND KS    SUNNY     63  50  62 S22       29.66F
HILL CITY KS   CLOUDY    67  58  72 S17G25    29.72F
IMPERIAL NEB   SUNNY     62  49  62 S6        29.66F
MCCOOK NEB     MOSUNNY   69  55  60 S20G29    29.67F
AKRON CO       CLOUDY    69  35  28 MISG      29.67F
BURLINGTON CO  SUNNY     71  51  49 S12       29.68F
LIMON CO       CLOUDY    72  16  12 SW18G31   29.70F
$$

...UNOFFICIAL OBSERVATIONS...

CITY           SKY/WX    TMP DP  RH WIND       PRES   REMARKS
LENORA KS        N/A     68  32  26 S17         N/A
NORTON KS      CLOUDY    61  54  77 SE12      29.70S
SHARON SPRINGS   N/A     69  53  55 S21G31      N/A
TRENTON NEB      N/A     63  32  31 SW10        N/A
YUMA CO        FAIR      73  34  23 W9        29.64F
$$



USA.gov is the U.S. government's official web portal to all federal, state and local government web resources and services.